{"data":{"norad_id":59173,"intl_designator":"2024-044X","name":"STARLINK-31289","alt_names":[],"object_type":"PAYLOAD","status":"ACTIVE","operator":null,"country":"US","launch_date":"2024-03-04","launch_site_code":"AFETR","launch_vehicle":null,"mission":null,"orbit_class":"UNKNOWN","rcs_meters":null,"size_class":null,"mass_kg":null,"dimensions":null,"purposes":["comms"],"wikipedia_slug":null,"has_3d_model":false,"image_url":null,"decayed_at":null,"tle_current":{"epoch":"2026-09-20T22:09:49.541184Z","epoch_age_seconds":122262,"freshness":"FRESH","line1":"1 59173U 24044X   26263.92349006 -.00000900  00000+0 -23180-4 0  9999","line2":"2 59173  43.0033  84.4790 0001240 272.2028  87.8681 15.27579039143455","mean_motion":15.27579039,"eccentricity":0.000124,"inclination_deg":43.0033,"raan_deg":84.479,"arg_perigee_deg":272.2028,"mean_anomaly_deg":87.8681,"bstar":-2.318e-5,"rev_number":14345,"period_min":94.266808016865,"perigee_km":482.20118618815,"apogee_km":483.90276105361,"semimajor_km":6861.1889736209,"source":"CELESTRAK","updated_at":"2026-09-21T09:00:34.061044Z"}}}